Cabot Strait: Past 24 Hour Conditions

 

Englee

08:30 PM NDT 22 September 2014
This table is a summary of hourly weather conditions for the past 24 hours.
Date / Time
(NDT)
Wind(knots) Conditions Visibility(km) Pressure(kPa) Air tempC) Relative humidity(%) Dew pointC)
22 September 2014
20:30 WSW 20 gust 27 N/A N/A 99.3 17 94 16
19:30 SW 21 gust 27 N/A N/A 99.2 17 94 16
18:30 SW 17 N/A N/A 99.0 17 100 17
17:30 S 23 gust 34 N/A N/A 98.9 18 100 18
16:30 SSE 23 gust 28 N/A N/A 98.9 16 100 16
15:30 SSE 30 gust 36 N/A N/A 99.0 15 100 15
14:30 SE 17 N/A N/A 99.3 12 100 12
13:30 ESE 14 N/A N/A 99.7 12 100 12
12:30 ESE 17 N/A N/A 100.0 12 100 12
11:30 ESE 20 gust 26 N/A N/A 100.2 12 100 12
10:30 ESE 27 gust 32 N/A N/A 100.4 13 100 13
9:30 SE 11 gust 25 N/A N/A 100.7 12 99 12
8:30 ESE 12 N/A N/A 100.9 11 99 11
7:30 ESE 7 N/A N/A 101.0 13 98 12
6:30 ESE 3 N/A N/A 101.0 14 92 13
5:30 SSE 4 N/A N/A 101.1 15 87 13
4:30 SE 3 N/A N/A 101.1 14 87 12
3:30 SSE 5 N/A N/A 101.1 13 91 12
2:30 SSE 7 N/A N/A 101.1 14 90 12
1:30 SE 5 N/A N/A 101.1 13 87 11
0:30 SSE 9 gust 16 N/A N/A 101.0 14 78 11
21 September 2014
23:30 WSW 17 gust 26 N/A N/A 101.0 18 73 13
22:30 SW 15 gust 22 N/A N/A 101.0 17 76 13
21:30 N/A N/A N/A N/A N/A N/A N/A
20:30 SE 6 N/A N/A 101.0 15 86 12
 
Map of Atlantic - Newfoundland marine weather areas Southwestern Grand Banks - 44138 Banquereau - 44139 Tail of the Bank - 44140 Nickerson Bank - 44251 Northeast Burgeo Bank - 44255 Blanc-Sablon Airport Cap Whittle Chevery Natashquan Airport Heath Point Miscou Island Grand Étang Ingonish Beach North Mountain St.Paul Island J.A. Douglas McCurdy Sydney Airport Charlottetown Airport East Point North Cape Argentia Bonavista Burgeo Cape Race Corner Brook Daniel's Harbour Englee Ferolle Point La Scie Port aux Basques Rocky Harbour Sagona Island St. Anthony Airport St. John's Int'l Airport St. Lawrence Stephenville Airport Twillingate Winterland Wreckhouse Cartwright Airport Mary's Harbour Grates Cove Pool's Island Marticot Island Long Pond Îles de la Madeleine Airport
Legend: buoyBuoy land stationLand Station